Pau, France

10:44 AM CEST on May 28, 2018 (GMT +0200)
Pau / Pyrenees

Weather History for LFBP - November, 2013

Change the Weather History Date:

Tuesday, November 12, 2013

  Actual Average Record
Temperature  
Mean Temperature 56 °F -  
Max Temperature 59 °F 53 °F 75 °F (2011)
Min Temperature 53 °F 38 °F 30 °F (2001)
Degree Days  
Heating Degree Days 9    
Growing Degree Days 6 (Base 50)    
Moisture  
Dew Point 55 °F    
Average Humidity 96    
Maximum Humidity 100    
Minimum Humidity 94    
Precipitation  
Precipitation 0.00 in - - ()
Sea Level Pressure  
Sea Level Pressure 30.31 in    
Wind  
Wind Speed 3 mph ()    
Max Wind Speed 6 mph    
Max Gust Speed -    
Visibility 2.8 miles    
Events Rain    
Averages and records for this station are not official NWS values.
T = Trace of Precipitation, MM = Missing Value Source: Averaged Metar Reports

Daily Weather History Graph

Daily Weather History Graph

Search for Another Location

Airport or City:

Astronomy

Nov. 12, 2013 Rise Set
Actual Time 7:51 AM CET 5:39 PM CET
Civil Twilight 7:20 AM CET 6:10 PM CET
Nautical Twilight 6:46 AM CET 6:44 PM CET
Astronomical Twilight 6:12 AM CET 7:18 PM CET
Moon 2:54 PM CET (11/12) 2:16 AM CET (11/12)
Length of Visible Light 10h 49m
Length of Day
9h 48m
Waxing Gibbous, 74% of the Moon is Illuminated
Nov 12
Waxing Gibbous
Nov 17
Full
Nov 25
Last Quarter
Dec 3
New
Dec 9
First Quarter

Hourly Weather History & Observations

Time (CET) Temp. Dew Point Humidity Pressure Visibility Wind Dir Wind Speed Gust Speed Precip Events Conditions
12:00 AM 53.6 °F 51.8 °F 94% 30.39 in 1.5 mi South 2.3 mph - N/A   Light Drizzle
12:30 AM 53.6 °F 51.8 °F 94% 30.39 in 1.2 mi Variable 2.3 mph - N/A   Light Drizzle
1:00 AM 53.6 °F 51.8 °F 94% 30.39 in 1.2 mi Variable 1.2 mph - N/A   Light Drizzle
1:30 AM 53.6 °F 51.8 °F 94% 30.36 in 1.5 mi SSW 2.3 mph - N/A Rain Light Rain
2:00 AM 53.6 °F 51.8 °F 94% 30.36 in 3.7 mi South 2.3 mph - N/A   Overcast
2:30 AM 53.6 °F 51.8 °F 94% 30.36 in - SSW 2.3 mph - N/A   Overcast
3:00 AM 53.6 °F 51.8 °F 94% 30.36 in 2.8 mi Variable 2.3 mph - N/A   Light Drizzle
3:30 AM 53.6 °F 51.8 °F 94% 30.33 in 1.9 mi SSW 2.3 mph - N/A   Light Drizzle
4:00 AM 53.6 °F 51.8 °F 94% 30.33 in 1.7 mi Variable 2.3 mph - N/A   Light Drizzle
4:30 AM 53.6 °F 51.8 °F 94% 30.33 in - Variable 1.2 mph - N/A   Light Drizzle
5:00 AM 53.6 °F 51.8 °F 94% 30.33 in - SSW 3.5 mph - N/A   Light Drizzle
5:30 AM 53.6 °F 51.8 °F 94% 30.33 in - SSW 3.5 mph - N/A   Light Drizzle
6:00 AM 53.6 °F 51.8 °F 94% 30.33 in 1.9 mi SW 3.5 mph - N/A Rain Rain
6:30 AM 53.6 °F 51.8 °F 94% 30.33 in 1.9 mi SW 3.5 mph - N/A Rain Rain
7:00 AM 53.6 °F 51.8 °F 94% 30.30 in 1.9 mi SW 4.6 mph - N/A Rain Rain
7:30 AM 53.6 °F 53.6 °F 100% 30.33 in 1.9 mi SSW 3.5 mph - N/A Rain Rain
8:00 AM 53.6 °F 53.6 °F 100% 30.33 in 2.2 mi SSW 3.5 mph - N/A Rain Rain
8:30 AM 53.6 °F 53.6 °F 100% 30.33 in 2.2 mi SSW 3.5 mph - N/A Rain Rain
9:00 AM 53.6 °F 53.6 °F 100% 30.33 in 2.2 mi SSW 3.5 mph - N/A Rain Rain
9:30 AM 55.4 °F 53.6 °F 94% 30.33 in 2.5 mi SSW 3.5 mph - N/A Rain Rain
10:00 AM 55.4 °F 53.6 °F 94% 30.33 in 2.8 mi SSW 4.6 mph - N/A   Light Drizzle
10:30 AM 55.4 °F 55.4 °F 100% 30.33 in 2.8 mi SSW 4.6 mph - N/A   Light Drizzle
11:00 AM 57.2 °F 55.4 °F 94% 30.33 in 2.8 mi SSW 4.6 mph - N/A   Light Drizzle
11:30 AM 57.2 °F 55.4 °F 94% 30.33 in 2.8 mi SSW 4.6 mph - N/A   Light Drizzle
12:00 PM 57.2 °F 55.4 °F 94% 30.30 in 2.8 mi South 5.8 mph - N/A   Light Drizzle
12:30 PM 57.2 °F 55.4 °F 94% 30.30 in 3.7 mi SSW 5.8 mph - N/A   Mostly Cloudy
1:00 PM 57.2 °F 55.4 °F 94% 30.30 in 3.1 mi SSW 4.6 mph - N/A   Mostly Cloudy
1:30 PM 57.2 °F 57.2 °F 100% 30.27 in 1.9 mi SW 5.8 mph - N/A   Light Drizzle
2:00 PM 57.2 °F 57.2 °F 100% 30.27 in 1.9 mi SW 4.6 mph - N/A   Light Drizzle
2:30 PM 57.2 °F 57.2 °F 100% 30.27 in 1.9 mi SW 4.6 mph - N/A   Light Drizzle
3:00 PM 59.0 °F 57.2 °F 94% 30.27 in 2.2 mi SW 4.6 mph - N/A   Light Drizzle
3:30 PM 59.0 °F 57.2 °F 94% 30.27 in 3.1 mi SW 3.5 mph - N/A   Light Drizzle
4:00 PM 59.0 °F 57.2 °F 94% 30.27 in 3.7 mi SW 4.6 mph - N/A   Overcast
4:30 PM 59.0 °F 57.2 °F 94% 30.27 in 3.7 mi SW 4.6 mph - N/A   Overcast
5:00 PM 59.0 °F 57.2 °F 94% 30.24 in 3.7 mi SW 3.5 mph - N/A   Overcast
5:30 PM 59.0 °F 57.2 °F 94% 30.24 in 3.7 mi SSW 3.5 mph - N/A   Overcast
6:00 PM 59.0 °F 57.2 °F 94% 30.24 in 3.7 mi Variable 3.5 mph - N/A   Overcast
6:30 PM 57.2 °F 57.2 °F 100% 30.27 in 3.7 mi South 2.3 mph - N/A   Overcast
7:00 PM 57.2 °F 55.4 °F 94% 30.27 in 6.2 mi SE 2.3 mph - N/A   Overcast
7:30 PM 57.2 °F 55.4 °F 94% 30.27 in 5.6 mi Calm Calm - N/A   Mostly Cloudy
8:00 PM 57.2 °F 55.4 °F 94% 30.27 in - Calm Calm - N/A   Overcast
8:17 PM 57.2 °F 57.2 °F 100% 30.27 in 1.4 mi Calm Calm - N/A   Light Drizzle
8:30 PM 57.2 °F 55.4 °F 94% 30.27 in 0.9 mi Calm Calm - N/A   Light Drizzle
9:00 PM 57.2 °F 57.2 °F 100% 30.27 in 0.9 mi Calm Calm - N/A Rain Light Rain
9:30 PM 57.2 °F 57.2 °F 100% 30.27 in 0.7 mi North 2.3 mph - N/A Rain Light Rain
10:00 PM 57.2 °F 57.2 °F 100% 30.27 in 1.4 mi Variable 3.5 mph - N/A   Overcast
10:30 PM 57.2 °F 57.2 °F 100% 30.27 in 6.2 mi NE 4.6 mph - N/A   Overcast
11:00 PM 57.2 °F 57.2 °F 100% 30.30 in 6.2 mi North 2.3 mph - N/A   Overcast
11:30 PM 57.2 °F 55.4 °F 94% 30.30 in 6.2 mi Variable 2.3 mph - N/A   Overcast